Regional Weather Roundup
Issued by NWS Sterling, VA

Home | Current Version | Previous Version | Text Only | Print | Product List | Glossary On
Versions: 1 2 3 4 5 6 7 8 9 10 11 12 13 14 15 16 17 18 19 20 21 22 23 24 25 26 27 28 29 30 31 32 33 34 35 36 37 38 39 40 41 42 43 44 45 46 47
000
ASUS41 KLWX 020310
RWRLWX

REGIONAL WEATHER ROUNDUP
NATIONAL WEATHER SERVICE BALTIMORE MD/WASHINGTON DC
1000 PM EST SUN MAR 01 2015

Note: "FAIR" indicates few or no clouds below 12,000 feet
with no significant weather and/or obstructions to visibility.
 TC=TEMPERATURE CELSIUS

 * =Non NWS site. Station does not report precipitation (e.g. rain,
    snow, etc.), thunder, or fog.

DCZ001-MDZ009-015-VAZ040>042-051-053>054-020400-
WASHINGTON METRO

CITY           SKY/WX    TMP DP  RH WIND       PRES   REMARKS
WASHINGTON NAT CLOUDY    34  30  86 S5        30.25F
DULLES         FOG       31  29  92 S3        30.22F VSB 1/2
ANDREWS AFB    CLOUDY    31  31  97 CALM      30.23F
FT BELVOIR     CLOUDY    32  30  94 CALM      30.24F
QUANTICO       CLOUDY    32  30  92 S3        30.26F
COLLEGE PARK*  CLOUDY    32  32 100 CALM      30.24F
LEESBURG*      CLOUDY    32  32 100 CALM      30.23S
GAITHERSBURG*  CLOUDY    30  28  93 CALM      30.26R

$$

MDZ006>007-011-014-020400-
BALTIMORE METRO

CITY           SKY/WX    TMP DP  RH WIND       PRES   REMARKS
BWI AIRPORT    CLOUDY    32  30  92 W3        30.23F
MD SCIENCE CTR   N/A      1 N/A N/A MISG      30.24F
MARTIN STATE   CLOUDY    32  30  93 CALM      30.25F
ANNAPOLIS      CLOUDY    31  29  92 MISG      30.23F
FORT MEADE*    CLOUDY    32  32 100 CALM      30.26F

$$

MDZ012-015-019>023-020400-
MARYLAND EASTERN SHORE

CITY           SKY/WX    TMP DP  RH WIND       PRES   REMARKS
OCEAN CITY     CLOUDY    32  32 100 CALM      30.23F FOG
SALISBURY      CLOUDY    35  32  88 W3        30.24F FOG
BAY BRIDGE AP*   N/A     32  32 100 CALM      30.25F
EASTON*        CLOUDY    33  33 100 SW3       30.28F

$$

MDZ017>025-020400-
SOUTHERN MARYLAND

CITY           SKY/WX    TMP DP  RH WIND       PRES   REMARKS
PATUXENT RIVER CLOUDY    31  29  92 CALM      30.25F
ST INIGOES     CLOUDY    31  28  89 CALM      30.25F FOG
LEONARDTOWN*   CLOUDY    32  30  93 CALM      30.26F

$$

MDZ003>005-020400-
NORTH CENTRAL MARYLAND

CITY           SKY/WX    TMP DP  RH WIND       PRES   REMARKS
FREDERICK*     CLOUDY    32  28  86 CALM      30.26R
HAGERSTOWN APT CLOUDY    31  28  89 CALM      30.19F FOG
WESTMINSTER*   CLOUDY    30  28  93 SW3       30.19F FOG

$$

MDZ501>502-020400-
WESTERN MARYLAND

CITY           SKY/WX    TMP DP  RH WIND       PRES   REMARKS
OAKLAND*       CLOUDY    32 N/A N/A W8        30.11S FOG     WCI  25
CUMBERLAND*    CLOUDY    32  30  93 CALM      30.22F

$$

VAZ025>031-020400-
SHENANDOAH VALLEY

CITY           SKY/WX    TMP DP  RH WIND       PRES   REMARKS
WINCHESTER*    CLOUDY    32  28  86 CALM      30.18F FOG
FRONT ROYAL*   MOCLDY    28  28 100 CALM      30.18S
LURAY*         CLOUDY    37  36  93 S3        30.17F
NEW MARKET*    CLOUDY    35  32  88 W6        30.18S
STAUNTON*      CLOUDY    39  33  77 S6        30.21R
WAYNESBORO*    CLOUDY    34  32  92 CALM      30.19S

$$

WVZ021-048>050-054>055-020400-
EASTERN WEST VIRGINIA PANHANDLE

CITY           SKY/WX    TMP DP  RH WIND       PRES   REMARKS
MARTINSBURG    CLOUDY    32  28  85 CALM      30.19F FOG
PETERSBURG*    NOT AVBL

$$

VAZ036>039-050-020400-
CENTRAL FOOTHILLS

CITY           SKY/WX    TMP DP  RH WIND       PRES   REMARKS
CHARLOTTESVILL CLOUDY    32  30  92 S10       30.21F FOG     WCI  24
CULPEPER*      CLOUDY    34  34 100 CALM      30.23F FOG
ORANGE*        CLOUDY    32  32 100 S7        30.24S FOG
GORDONSVILLE*  CLOUDY    32  31  96 SW8       30.22F FOG     WCI  25
WARRENTON*     CLOUDY    33  33 100 SW3       30.22S FOG

$$

VAZ055>057-020400-
NORTH AND CENTRAL PIEDMONT

CITY           SKY/WX    TMP DP  RH WIND       PRES   REMARKS
FREDERICKSBRG* CLOUDY    34  34 100 SW3       30.25S
STAFFORD*      CLOUDY    32  32 100 CALM      30.28F FOG

$$

NCZ024-NYZ072-PAZ021-071-VAZ022-071-020400-
OTHER REGIONAL OBSERVATIONS

CITY           SKY/WX    TMP DP  RH WIND       PRES   REMARKS
NEW YORK CITY  MIX PCPN  28  23  81 NW3       30.24F
PHILADELPHIA   CLOUDY    32  29  88 SW3       30.23F
PITTSBURGH     LGT SNOW  33  32  96 W8        30.16S FOG     WCI  26
ROANOKE        MOCLDY    35  29  78 CALM      30.27F
RICHMOND       CLOUDY    33  30  88 SW6       30.28F FOG
RALEIGH        CLOUDY    34  32  92 SW7       30.32F FOG

$$

ANZ530>537-020400-
MARINE OBSERVATIONS

STATION/POSITION TIME  TEMP    WIND        PRES
                       AIR SEA DIR/SP/G
                 (UTC) (F)     (DEG/KT/KT) (MB)
THOMAS PT LIGHT  NOT AVBL
BALT KEY BRIDGE  0200   30        CALM     1024.6F
COVE POINT       0200   30        CALM     1025.0F
LEWISETTA        0200   32 33              1024.7F
SOLOMONS ISLAND  0212      32                N/A

$$



USA.gov is the U.S. government's official web portal to all federal, state and local government web resources and services.